CW8192 Weather Reports


Display with metric or nautical units.
time (UTC)temp
F
wind
direction
speed
MPH
gust
MPH
rain 1hr
in
rain 24hr
in
rain mn
in
humidity
%
barometer
mb
20260831193705 76 214 1.0 2.0 0.00 0.00 0.00 74 1018.1
20260831193205 76 210 1.0 3.0 0.00 0.00 0.00 73 1018.2
20260831192705 76 181 2.0 3.0 0.00 0.00 0.00 75 1018.2
20260831191704 76 223 1.0 2.0 0.00 0.00 0.00 73 1018.3
20260831191205 76 253 1.0 2.0 0.00 0.00 0.00 71 1018.3
20260831190704 76 218 2.0 5.0 0.00 0.00 0.00 71 1018.4
20260831190205 76 236 1.0 2.0 0.00 0.00 0.00 72 1018.5
20260831185705 76 221 2.0 3.0 0.00 0.00 0.00 73 1018.6
20260831185205 76 187 2.0 3.0 0.00 0.00 0.00 74 1018.7
20260831184705 76 225 1.0 3.0 0.00 0.00 0.00 72 1018.9
20260831184204 76 280 1.0 2.0 0.00 0.00 0.00 71 1018.8
20260831183205 76 212 2.0 5.0 0.00 0.00 0.00 72 1019.2
20260831182705 76 221 2.0 3.0 0.00 0.00 0.00 75 1018.9
20260831181705 75 222 1.0 3.0 0.00 0.00 0.00 74 1019.0
20260831181205 75 215 1.0 3.0 0.00 0.00 0.00 73 1019.0
20260831180704 75 269 1.0 3.0 0.00 0.00 0.00 76 1019.1
20260831180205 74 286 0.0 2.0 0.00 0.00 0.00 74 1019.2
20260831175705 74 286 1.0 2.0 0.00 0.00 0.00 76 1019.1
20260831175204 75 173 1.0 3.0 0.00 0.00 0.00 75 1019.1
20260831174705 75 224 2.0 5.0 0.00 0.00 0.00 74 1019.0
20260831173705 75 275 1.0 3.0 0.00 0.00 0.00 73 1019.1
20260831172705 74 291 1.0 2.0 0.00 0.00 0.00 76 1019.1
20260831171705 74 207 0.0 2.0 0.00 0.00 0.00 76 1019.2
20260831171205 73 182 0.0 2.0 0.00 0.00 0.00 76 1019.2
20260831170705 74 209 1.0 1.0 0.00 0.00 0.00 76 1019.4
20260831170205 74 253 0.0 0.0 0.00 0.00 0.00 76 1019.8
20260831165705 74 282 1.0 2.0 0.00 0.00 0.00 75 1019.9
20260831165204 74 185 1.0 2.0 0.00 0.00 0.00 75 1020.0
20260831164705 74 19 1.0 3.0 0.00 0.00 0.00 76 1020.1
20260831163705 73 288 1.0 2.0 0.00 0.00 0.00 77 1020.1
20260831163205 73 338 0.0 1.0 0.00 0.00 0.00 77 1020.1
20260831162704 73 236 1.0 2.0 0.00 0.00 0.00 77 1020.0
20260831161705 74 19 0.0 3.0 0.00 0.00 0.00 78 1020.2
20260831161204 74 37 1.0 3.0 0.00 0.00 0.00 73 1020.1
20260831160705 75 121 0.0 1.0 0.00 0.00 0.00 77 1020.3
20260831160205 75 128 0.0 3.0 0.00 0.00 0.00 75 1020.2
20260831155704 75 342 0.0 1.0 0.00 0.00 0.00 80 1020.2
20260831155205 74 240 1.0 2.0 0.00 0.00 0.00 75 1020.3
20260831154205 73 313 0.0 2.0 0.00 0.00 0.00 80 1020.4
20260831153704 73 12 1.0 2.0 0.00 0.00 0.00 80 1020.4
20260831152705 72 314 0.0 2.0 0.00 0.00 0.00 83 1020.5
20260831152205 72 314 1.0 3.0 0.00 0.00 0.00 81 1020.6
20260831151704 72 291 1.0 2.0 0.00 0.00 0.00 79 1020.7
20260831151204 72 284 0.0 2.0 0.00 0.00 0.00 79 1020.4
20260831150704 73 285 1.0 2.0 0.00 0.00 0.00 80 1020.3
20260831150205 73 314 1.0 2.0 0.00 0.00 0.00 80 1020.2
20260831145704 73 317 0.0 0.0 0.00 0.00 0.00 80 1020.1
20260831145204 74 265 1.0 2.0 0.00 0.00 0.00 78 1020.2
20260831144704 73 292 1.0 2.0 0.00 0.00 0.00 79 1020.2
20260831144205 73 263 1.0 2.0 0.00 0.00 0.00 81 1020.2
20260831143705 73 269 2.0 3.0 0.00 0.00 0.00 78 1020.3
20260831143204 72 112 1.0 3.0 0.00 0.00 0.00 85 1020.4
20260831142705 71 234 0.0 2.0 0.00 0.00 0.00 85 1020.3
20260831142205 71 158 1.0 3.0 0.00 0.00 0.00 82 1020.3
20260831141704 71 0 1.0 3.0 0.00 0.00 0.00 83 1020.3
20260831141204 71 124 1.0 3.0 0.00 0.00 0.00 84 1020.2
20260831140205 70 239 0.0 3.0 0.00 0.00 0.00 86 1020.3
20260831135704 70 122 3.0 6.0 0.00 0.00 0.00 87 1020.5
20260831135205 68 165 2.0 3.0 0.00 0.00 0.00 88 1020.4
20260831134704 67 85 3.0 5.0 0.00 0.00 0.00 90 1020.5
20260831134204 67 125 2.0 3.0 0.00 0.00 0.00 92 1020.5
20260831133705 67 84 1.0 3.0 0.00 0.00 0.00 91 1020.5
20260831133204 67 269 0.0 0.0 0.00 0.00 0.00 92 1020.4
20260831132704 66 269 0.0 0.0 0.00 0.00 0.00 90 1020.4
20260831132204 66 269 0.0 0.0 0.00 0.00 0.00 92 1020.4
20260831131704 66 63 0.0 0.0 0.00 0.00 0.00 94 1020.5
20260831131205 66 63 0.0 0.0 0.00 0.00 0.00 93 1020.5
20260831130705 66 63 0.0 0.0 0.00 0.00 0.00 96 1020.5
20260831130204 65 88 0.0 0.0 0.00 0.00 0.00 96 1020.5
20260831125705 65 96 0.0 0.0 0.00 0.00 0.00 96 1020.6
20260831125205 64 131 0.0 0.0 0.00 0.00 0.00 98 1020.7
20260831124704 64 193 0.0 0.0 0.00 0.00 0.00 98 1020.8
20260831124205 64 66 0.0 0.0 0.00 0.00 0.00 99 1020.7
20260831123705 64 93 0.0 0.0 0.00 0.00 0.00 99 1020.6
20260831123204 64 184 0.0 0.0 0.00 0.00 0.00 99 1020.6
20260831122704 63 184 0.0 0.0 0.00 0.00 0.00 99 1020.7
20260831122205 63 166 0.0 0.0 0.00 0.00 0.00 99 1020.7
20260831121705 63 94 0.0 0.0 0.00 0.00 0.00 99 1020.8
20260831121205 63 94 0.0 0.0 0.00 0.00 0.00 99 1020.6
20260831120705 63 94 0.0 0.0 0.00 0.00 0.00 99 1020.5
20260831120204 62 94 0.0 0.0 0.00 0.00 0.00 99 1020.4
20260831115704 62 94 0.0 0.0 0.00 0.00 0.00 99 1020.5
20260831114704 62 114 0.0 0.0 0.00 0.00 0.00 99 1020.6
20260831114204 61 114 0.0 0.0 0.00 0.00 0.00 99 1020.6
20260831113705 61 114 0.0 0.0 0.00 0.00 0.00 99 1020.5
20260831113204 61 114 0.0 0.0 0.00 0.00 0.00 99 1020.5
20260831112704 61 114 0.0 0.0 0.00 0.00 0.00 98 1020.4
20260831112205 60 114 0.0 0.0 0.00 0.00 0.00 98 1020.2
20260831111705 60 114 0.0 0.0 0.00 0.00 0.00 99 1020.1
20260831111204 60 114 0.0 0.0 0.00 0.00 0.00 98 1019.9
20260831110205 59 114 0.0 0.0 0.00 0.00 0.00 98 1019.6
20260831105205 59 114 0.0 0.0 0.00 0.00 0.00 98 1019.6
20260831104705 59 114 0.0 0.0 0.00 0.00 0.00 98 1019.4
20260831104205 59 105 0.0 0.0 0.00 0.00 0.00 98 1019.5
20260831103705 59 105 0.0 0.0 0.00 0.00 0.00 98 1019.4
20260831103204 59 105 0.0 0.0 0.00 0.00 0.00 98 1019.4
20260831102204 59 105 0.0 0.0 0.00 0.00 0.00 98 1019.2
20260831101704 59 105 0.0 0.0 0.00 0.00 0.00 98 1019.2
20260831101204 59 105 0.0 0.0 0.00 0.00 0.00 98 1019.3
20260831100705 59 105 0.0 0.0 0.00 0.00 0.00 98 1019.4
20260831100204 58 105 0.0 0.0 0.00 0.00 0.00 98 1019.3
20260831095705 58 98 0.0 0.0 0.00 0.00 0.00 98 1019.2
20260831095204 58 96 0.0 0.0 0.00 0.00 0.00 98 1019.0
20260831094704 58 289 0.0 0.0 0.00 0.00 0.00 98 1019.0
20260831094204 58 289 0.0 0.0 0.00 0.00 0.00 98 1019.0
20260831093704 58 314 0.0 0.0 0.00 0.00 0.00 98 1019.1
20260831093204 58 82 0.0 0.0 0.00 0.00 0.00 98 1019.1
20260831092704 58 82 0.0 0.0 0.00 0.00 0.00 98 1019.2
20260831092204 59 88 0.0 0.0 0.00 0.00 0.00 98 1019.1
20260831091704 59 90 0.0 0.0 0.00 0.00 0.00 98 1019.1
20260831091204 59 90 0.0 0.0 0.00 0.00 0.00 98 1019.1
20260831090705 59 90 0.0 0.0 0.00 0.00 0.00 98 1019.2
20260831090204 59 90 0.0 0.0 0.00 0.00 0.00 98 1019.3
20260831085704 59 91 0.0 0.0 0.00 0.00 0.00 98 1019.3
20260831085204 59 89 0.0 0.0 0.00 0.00 0.00 98 1019.3
20260831084704 59 105 0.0 0.0 0.00 0.00 0.00 98 1019.4
20260831083704 59 143 0.0 0.0 0.00 0.00 0.00 98 1019.3
20260831083205 59 143 0.0 0.0 0.00 0.00 0.00 98 1019.2
20260831082205 59 143 0.0 0.0 0.00 0.00 0.00 98 1019.3
20260831081204 59 178 0.0 0.0 0.00 0.00 0.00 98 1019.2
20260831080704 59 178 0.0 0.0 0.00 0.00 0.00 98 1019.1
20260831080205 59 176 0.0 0.0 0.00 0.00 0.00 98 1019.1
20260831075704 59 176 0.0 0.0 0.00 0.00 0.00 98 1019.1
20260831075205 59 176 0.0 0.0 0.00 0.00 0.00 97 1019.0
20260831074705 60 173 0.0 0.0 0.00 0.00 0.00 98 1018.8
20260831074204 60 173 0.0 0.0 0.00 0.00 0.00 98 1018.9
20260831073705 60 173 0.0 0.0 0.00 0.00 0.00 98 1018.9
20260831073204 60 175 0.0 0.0 0.00 0.00 0.00 98 1018.9
20260831072704 60 174 0.0 0.0 0.00 0.00 0.00 98 1018.9
20260831072204 60 141 0.0 0.0 0.00 0.00 0.00 98 1018.9
20260831071705 60 166 0.0 0.0 0.00 0.00 0.00 98 1018.9
20260831070706 60 116 2.0 3.0 0.00 0.00 0.00 97 1018.9
20260831070204 60 139 0.0 0.0 0.00 0.00 0.00 98 1018.9
20260831065204 60 143 0.0 0.0 0.00 0.00 0.00 97 1019.0
20260831064704 60 143 0.0 0.0 0.00 0.00 0.00 97 1019.0
20260831064204 60 143 0.0 0.0 0.00 0.00 0.00 97 1019.0
20260831063204 60 143 0.0 0.0 0.00 0.00 0.00 98 1018.9
20260831062704 60 127 0.0 0.0 0.00 0.00 0.00 97 1019.0
20260831062204 60 87 0.0 0.0 0.00 0.00 0.00 97 1019.1
20260831061704 60 91 0.0 0.0 0.00 0.00 0.00 97 1018.9
20260831061204 60 91 0.0 0.0 0.00 0.00 0.00 97 1019.0
20260831060704 60 91 0.0 0.0 0.00 0.00 0.00 97 1018.9
20260831060205 60 91 0.0 0.0 0.00 0.00 0.00 97 1019.0
20260831055704 60 91 0.0 0.0 0.00 0.00 0.00 97 1019.2
20260831055204 60 91 0.0 0.0 0.00 0.00 0.00 97 1019.1
20260831054705 60 92 0.0 0.0 0.00 0.00 0.00 96 1019.2
20260831054204 60 92 0.0 0.0 0.00 0.00 0.00 96 1019.2
20260831053704 60 94 0.0 0.0 0.00 0.00 0.00 97 1019.1
20260831053204 60 123 0.0 0.0 0.00 0.00 0.00 97 1019.0
20260831051704 60 116 0.0 1.0 0.00 0.00 0.00 96 1018.9
20260831051204 61 274 0.0 0.0 0.00 0.00 0.00 96 1018.8
20260831050704 61 269 0.0 0.0 0.00 0.00 0.00 96 1018.9
20260831050204 61 264 0.0 0.0 0.00 0.00 0.00 96 1018.9
20260831045704 61 259 0.0 0.0 0.00 0.00 0.00 97 1018.9
20260831045205 61 180 0.0 1.0 0.00 0.00 0.00 97 1018.9
20260831044704 61 180 1.0 3.0 0.00 0.00 0.00 96 1019.0
20260831044204 61 114 0.0 3.0 0.00 0.00 0.00 95 1019.0
20260831043704 61 38 0.0 0.0 0.00 0.00 0.00 96 1019.0
20260831043204 61 38 0.0 0.0 0.00 0.00 0.00 96 1019.0
20260831042704 61 24 0.0 0.0 0.00 0.00 0.00 95 1019.0
20260831042205 61 310 0.0 0.0 0.00 0.00 0.00 96 1018.9
20260831041704 62 292 0.0 0.0 0.00 0.00 0.00 96 1018.9
20260831041204 62 292 0.0 0.0 0.00 0.00 0.00 96 1018.9
20260831040705 62 303 0.0 0.0 0.00 0.00 0.00 96 1019.0
20260831035704 62 304 0.0 0.0 0.00 0.00 0.00 95 1019.0
20260831034704 62 304 0.0 0.0 0.00 0.00 0.00 95 1018.9
20260831034204 62 304 0.0 0.0 0.00 0.00 0.00 96 1019.0
20260831033704 62 304 0.0 0.0 0.00 0.00 0.00 95 1019.0
20260831033204 62 304 0.0 0.0 0.00 0.00 0.00 95 1019.1
20260831032704 62 304 0.0 0.0 0.00 0.00 0.00 95 1019.1
20260831032204 63 304 0.0 0.0 0.00 0.00 0.00 95 1019.1
20260831031704 63 304 1.0 1.0 0.00 0.00 0.00 95 1019.1
20260831031204 63 304 1.0 2.0 0.00 0.00 0.00 95 1019.2
20260831030705 63 314 0.0 0.0 0.00 0.00 0.00 94 1019.2
20260831030204 63 314 0.0 1.0 0.00 0.00 0.00 93 1019.2
20260831025704 63 314 1.0 2.0 0.00 0.00 0.00 93 1019.0
20260831025204 64 319 1.0 2.0 0.00 0.00 0.00 93 1019.0
20260831024704 64 321 0.0 1.0 0.00 0.00 0.00 92 1019.0
20260831024204 64 68 0.0 1.0 0.00 0.00 0.00 92 1018.9
20260831023704 64 68 0.0 0.0 0.00 0.00 0.00 91 1018.9
20260831022704 65 90 0.0 1.0 0.00 0.00 0.00 92 1018.8
20260831022204 65 311 1.0 6.0 0.00 0.00 0.00 92 1018.9
20260831021705 65 295 0.0 2.0 0.00 0.00 0.00 92 1018.8
20260831021204 65 269 0.0 0.0 0.00 0.00 0.00 92 1018.8
20260831020704 65 91 0.0 0.0 0.00 0.00 0.00 91 1019.0
20260831020205 65 93 0.0 1.0 0.00 0.00 0.00 92 1018.9
20260831015704 65 92 1.0 2.0 0.00 0.00 0.00 91 1018.9
20260831015204 65 86 0.0 0.0 0.00 0.00 0.00 91 1018.9
20260831014704 65 86 0.0 0.0 0.00 0.00 0.00 91 1018.8
20260831014204 65 86 0.0 0.0 0.00 0.00 0.00 91 1018.8
20260831013705 65 108 0.0 0.0 0.00 0.00 0.00 91 1018.9
20260831013204 65 58 0.0 0.0 0.00 0.00 0.00 92 1018.9
20260831012705 65 49 0.0 0.0 0.00 0.00 0.00 91 1018.7
20260831011704 65 318 2.0 3.0 0.00 0.00 0.00 91 1018.5
20260831011204 66 300 2.0 3.0 0.00 0.00 0.00 92 1018.5
20260831010705 66 261 1.0 2.0 0.00 0.00 0.00 92 1018.5
20260831005704 66 300 0.0 1.0 0.00 0.00 0.00 93 1018.7
20260831005204 66 300 0.0 2.0 0.00 0.00 0.00 93 1018.4
20260831004204 66 311 0.0 0.0 0.00 0.00 0.00 92 1018.3
20260831003704 66 311 0.0 0.0 0.00 0.00 0.00 92 1018.1
20260831003204 66 311 0.0 0.0 0.00 0.00 0.00 91 1018.0
20260831002704 66 311 0.0 2.0 0.00 0.00 0.00 91 1018.0
20260831002204 66 298 0.0 3.0 0.00 0.00 0.00 91 1017.9
20260831001704 66 310 0.0 0.0 0.00 0.00 0.00 92 1017.8
20260831001204 66 311 0.0 0.0 0.00 0.00 0.00 92 1017.7
20260831000704 66 310 0.0 0.0 0.00 0.00 0.00 92 1017.5
20260830235704 66 301 0.0 0.0 0.00 0.00 0.00 92 1017.4
20260830235204 66 289 0.0 1.0 0.00 0.00 0.00 91 1017.4
20260830234704 66 291 1.0 2.0 0.00 0.00 0.00 91 1017.2
20260830234204 66 298 1.0 2.0 0.00 0.00 0.00 90 1017.1
20260830233704 66 298 1.0 2.0 0.00 0.00 0.00 90 1017.1
20260830233204 67 308 2.0 3.0 0.00 0.00 0.00 90 1017.0
20260830232703 67 291 2.0 3.0 0.00 0.00 0.00 90 1017.1
20260830232204 67 299 1.0 2.0 0.00 0.00 0.00 90 1017.1
20260830231704 67 299 1.0 2.0 0.00 0.00 0.00 89 1017.2
20260830231205 67 300 2.0 3.0 0.00 0.00 0.00 90 1017.1
20260830230705 67 297 2.0 3.0 0.00 0.00 0.00 88 1017.2
20260830230204 68 291 2.0 8.0 0.00 0.00 0.00 88 1017.2
20260830225704 68 291 3.0 6.0 0.00 0.00 0.00 88 1017.2
20260830225204 69 300 3.0 7.0 0.00 0.00 0.00 88 1017.3
20260830224704 69 296 1.0 3.0 0.00 0.00 0.00 88 1017.2
20260830224204 70 332 0.0 0.0 0.00 0.00 0.00 89 1017.1
20260830223704 70 332 0.0 0.0 0.00 0.00 0.00 88 1017.0
20260830223204 70 9 0.0 0.0 0.00 0.00 0.00 88 1017.0
20260830222703 70 9 0.0 0.0 0.00 0.00 0.00 87 1017.0
20260830222205 71 9 0.0 0.0 0.00 0.00 0.00 87 1017.0
20260830221705 71 9 0.0 0.0 0.00 0.00 0.00 88 1017.0
20260830221205 71 9 0.0 0.0 0.00 0.00 0.00 85 1017.0
20260830220705 71 9 0.0 0.0 0.00 0.00 0.00 87 1017.2
20260830220205 71 101 0.0 0.0 0.00 0.00 0.00 86 1017.1
20260830215705 71 88 0.0 0.0 0.00 0.00 0.00 85 1017.1
20260830215205 71 88 0.0 0.0 0.00 0.00 0.00 85 1017.0
20260830214705 71 88 0.0 0.0 0.00 0.00 0.00 86 1016.8
20260830213706 71 113 0.0 0.0 0.00 0.00 0.00 86 1016.7
20260830212705 72 144 0.0 1.0 0.00 0.00 0.00 85 1016.6
20260830210707 72 219 0.0 0.0 0.00 0.00 0.00 81 1016.9
20260830210205 73 219 0.0 0.0 0.00 0.00 0.00 80 1016.9
20260830205705 73 219 0.0 0.0 0.00 0.00 0.00 80 1016.8
20260830205205 73 220 0.0 0.0 0.00 0.00 0.00 80 1016.8
20260830204705 73 223 0.0 0.0 0.00 0.00 0.00 80 1016.9
20260830204205 73 223 0.0 1.0 0.00 0.00 0.00 79 1016.8
20260830203704 73 221 1.0 3.0 0.00 0.00 0.00 78 1016.8
20260830203205 73 223 1.0 2.0 0.00 0.00 0.00 79 1016.7
20260830202705 73 220 1.0 3.0 0.00 0.00 0.00 79 1016.8
20260830202205 74 249 0.0 2.0 0.00 0.00 0.00 80 1016.8
20260830201705 74 225 0.0 0.0 0.00 0.00 0.00 78 1016.9
20260830200705 74 225 0.0 2.0 0.00 0.00 0.00 78 1016.9
20260830200205 75 224 1.0 3.0 0.00 0.00 0.00 77 1016.9
20260830195705 75 215 0.0 0.0 0.00 0.00 0.00 79 1016.9
20260830195205 74 225 0.0 2.0 0.00 0.00 0.00 77 1016.9
20260830194206 75 230 2.0 3.0 0.00 0.00 0.00 78 1017.0